Total_Precipitation_Accumulation
2.16 2.07 2.55 3.51 4.03 3.53 3.06 2.41 2.06 1.98 1.68 1.33 1.02 0.99 1.23 1.65 2.07 2.39 2.61 2.44 1.69 1.35 1.42 2.09 2.63 2.36 1.91 1.62 1.54 1.56 1.48 1.54 1.47 1.40 1.25 1.15 1.01 0.90 0.78 0.67 0.71 0.71 0.66 0.61 0.61 0.71 0.73 0.73 0.88
1.63 2.43 3.15 4.06 3.64 2.98 2.80 2.39 2.18 1.85 1.34 1.07 0.78 0.71 0.82 0.86 0.89 1.39 2.45 2.43 1.56 1.28 1.35 1.57 2.15 2.05 1.68 1.47 1.47 1.55 1.49 1.60 1.53 1.35 1.18 1.05 1.03 0.99 0.90 0.84 0.94 0.75 0.65 0.63 0.66 0.75 0.81 0.78 0.87
1.79 2.85 3.79 4.01 2.89 2.60 2.68 2.48 2.06 1.52 1.07 0.97 0.79 0.70 0.85 1.05 1.09 1.53 2.19 1.79 1.35 1.25 1.30 1.69 2.12 1.93 1.68 1.48 1.52 1.61 1.58 1.59 1.44 1.22 1.00 1.00 1.07 1.07 1.05 1.05 1.03 0.79 0.68 0.62 0.63 0.72 0.78 0.79 0.86
2.10 3.18 3.47 3.21 2.63 2.17 2.18 2.20 1.71 1.37 1.06 0.72 0.70 0.75 0.79 1.11 1.14 1.42 1.50 1.29 1.15 1.23 1.25 1.57 1.99 1.87 1.67 1.49 1.55 1.61 1.65 1.63 1.55 1.28 1.04 1.03 1.08 1.07 1.05 1.10 0.96 0.86 0.78 0.66 0.66 0.71 0.78 0.79 0.83
2.48 3.30 3.26 2.85 2.53 2.13 1.80 1.53 1.32 1.24 1.07 0.79 0.67 0.88 1.19 1.52 1.35 1.29 1.26 1.18 1.03 1.12 1.11 1.27 1.71 1.75 1.61 1.51 1.66 1.73 1.73 1.75 1.72 1.44 1.21 1.12 1.07 1.06 1.09 1.13 0.97 0.92 0.86 0.81 0.80 0.81 0.81 0.80 0.84
2.76 2.90 3.15 2.80 2.50 2.22 2.11 1.55 1.31 1.20 0.92 0.76 0.75 0.99 1.55 1.83 1.56 1.41 1.26 1.31 1.25 1.23 1.12 1.08 1.46 1.57 1.50 1.51 1.60 1.66 1.67 1.65 1.63 1.42 1.23 1.13 1.06 1.03 1.12 1.19 1.06 0.98 0.89 0.83 0.84 0.87 0.90 0.90 0.90
2.69 2.80 2.91 2.42 2.44 2.61 2.25 1.56 1.39 1.17 1.04 0.83 0.68 1.08 1.63 1.91 1.62 1.41 1.35 1.38 1.45 1.38 1.31 1.18 1.22 1.34 1.56 1.63 1.60 1.54 1.46 1.45 1.41 1.27 1.16 1.08 1.03 0.98 1.04 1.10 1.03 1.01 0.99 0.95 0.89 0.94 1.00 0.93 0.95
2.00 2.27 2.40 2.35 2.49 2.70 1.95 1.40 1.09 0.98 0.91 0.68 0.61 1.01 1.43 1.46 1.37 1.37 1.50 1.65 1.79 1.61 1.46 1.24 1.15 1.21 1.27 1.39 1.50 1.55 1.51 1.44 1.37 1.21 1.08 1.03 0.98 0.89 0.93 0.89 0.88 0.95 1.06 1.14 1.10 1.08 1.05 1.04 1.00
1.83 2.41 2.74 2.74 2.48 2.12 1.38 1.19 0.98 0.77 0.83 0.75 0.59 0.64 0.81 0.89 1.04 1.24 1.30 1.45 1.57 1.33 1.24 1.27 1.26 1.28 1.30 1.24 1.31 1.51 1.55 1.50 1.31 1.19 1.10 0.99 0.79 0.70 0.76 0.75 0.92 1.05 1.23 1.31 1.33 1.28 1.23 1.12 0.97
1.90 2.60 2.63 2.08 1.81 1.52 1.09 1.04 0.92 0.90 0.94 0.88 0.68 0.67 0.78 0.83 1.01 1.17 1.09 1.08 1.01 0.97 0.95 1.02 1.11 1.27 1.30 1.17 1.36 1.59 1.42 1.25 1.00 1.00 0.89 0.88 0.81 0.77 0.64 0.71 0.97 1.15 1.23 1.25 1.37 1.44 1.27 0.99 0.73
1.54 2.05 1.86 1.64 1.40 1.18 1.01 1.04 0.88 0.90 1.03 0.90 0.73 0.74 0.92 0.99 0.99 0.95 0.90 0.90 0.83 0.83 0.81 0.81 0.89 1.00 1.10 1.24 1.48 1.74 1.77 1.53 1.28 1.06 0.97 0.94 0.82 0.73 0.68 0.68 0.78 0.90 0.97 0.92 0.97 1.00 0.86 0.76 0.69
1.35 1.33 1.34 1.54 1.27 1.18 0.99 0.97 0.97 0.90 0.93 0.80 0.68 0.70 0.86 1.01 1.02 0.88 0.72 0.66 0.63 0.67 0.77 0.66 0.59 0.77 0.94 1.05 1.17 1.41 1.47 1.39 1.22 1.01 0.91 0.97 0.91 0.80 0.77 0.76 0.82 0.84 0.85 0.95 0.96 1.00 0.94 0.77 0.68
1.64 1.41 1.20 1.18 1.20 1.23 1.02 0.96 0.97 0.93 0.82 0.73 0.70 0.81 0.88 0.87 0.86 0.78 0.64 0.56 0.58 0.67 0.75 0.69 0.59 0.59 0.68 0.75 0.84 0.97 1.13 1.21 1.17 1.10 0.90 0.89 0.89 0.84 0.88 0.83 0.86 0.77 0.77 0.88 0.96 0.98 1.00 0.90 0.76
1.45 1.28 1.24 1.23 1.19 1.16 1.16 0.95 0.96 1.12 0.84 0.76 0.81 0.90 0.86 0.78 0.77 0.82 0.70 0.62 0.56 0.59 0.72 0.73 0.64 0.61 0.64 0.64 0.65 0.66 0.81 0.96 1.07 1.04 0.91 0.92 0.93 0.88 0.94 0.90 0.90 0.87 0.81 0.85 1.05 1.00 1.03 1.01 0.93
1.33 1.46 1.37 1.27 1.22 1.20 1.16 1.25 1.15 1.08 0.89 0.83 0.84 0.83 0.81 0.74 0.72 0.82 0.74 0.63 0.56 0.55 0.61 0.68 0.68 0.70 0.73 0.71 0.70 0.59 0.63 0.71 0.83 0.95 0.93 0.97 0.92 0.84 0.88 0.90 0.87 0.88 0.89 0.92 1.00 1.01 1.05 0.97 0.91
1.61 1.74 1.79 1.50 1.32 1.15 1.20 1.54 1.39 1.15 0.96 0.95 0.89 0.79 0.77 0.72 0.66 0.71 0.70 0.68 0.65 0.64 0.66 0.72 0.75 0.79 0.81 0.82 0.82 0.75 0.79 0.83 0.85 0.99 0.96 0.91 0.94 0.91 0.91 0.95 0.96 1.01 1.05 1.04 1.07 1.12 1.11 1.06 1.06
1.78 1.74 1.57 1.46 1.22 1.03 1.08 1.32 1.33 1.21 0.99 0.86 0.80 0.69 0.61 0.54 0.50 0.49 0.51 0.53 0.59 0.59 0.60 0.64 0.74 0.78 0.79 0.83 0.91 1.03 1.06 1.06 1.03 1.07 1.03 0.94 0.93 0.97 1.07 1.10 1.17 1.14 1.17 1.20 1.17 1.21 1.12 1.13 1.16
1.72 1.40 1.18 1.13 1.07 0.95 0.89 0.99 1.05 1.07 0.94 0.75 0.63 0.54 0.49 0.41 0.38 0.35 0.34 0.36 0.43 0.47 0.52 0.57 0.64 0.81 0.93 0.96 0.97 1.11 1.17 1.24 1.32 1.37 1.25 1.11 1.13 1.26 1.41 1.49 1.44 1.43 1.45 1.46 1.42 1.49 1.37 1.21 1.24
1.26 1.21 1.07 0.90 0.88 0.90 0.81 0.81 0.86 0.85 0.83 0.69 0.54 0.43 0.38 0.33 0.26 0.24 0.22 0.25 0.28 0.32 0.39 0.45 0.51 0.69 0.82 0.88 0.98 1.16 1.33 1.50 1.64 1.75 1.65 1.51 1.47 1.64 1.76 1.70 1.79 1.82 1.70 1.72 1.78 1.84 1.78 1.54 1.41
1.09 1.11 0.97 0.82 0.71 0.71 0.71 0.73 0.76 0.73 0.72 0.60 0.46 0.38 0.29 0.23 0.21 0.16 0.13 0.14 0.18 0.21 0.26 0.31 0.39 0.49 0.61 0.78 1.01 1.20 1.49 1.58 1.66 1.79 1.83 1.77 1.71 1.87 1.90 1.99 2.09 2.14 2.14 2.09 1.98 2.07 2.18 1.92 1.69
0.90 0.95 0.86 0.78 0.67 0.62 0.61 0.75 0.74 0.67 0.64 0.55 0.42 0.33 0.24 0.18 0.15 0.12 0.10 0.10 0.14 0.16 0.17 0.24 0.36 0.49 0.70 0.94 1.26 1.55 1.78 1.86 1.90 1.85 1.90 1.98 2.03 2.10 2.13 2.19 2.27 2.30 2.15 2.16 2.24 2.36 2.70 2.52 2.15
0.86 0.64 0.58 0.57 0.64 0.65 0.58 0.84 0.64 0.53 0.54 0.48 0.40 0.36 0.28 0.19 0.14 0.12 0.12 0.11 0.12 0.15 0.20 0.31 0.49 0.68 0.95 1.29 1.63 1.87 2.10 2.21 2.05 2.03 2.06 2.06 2.01 2.04 2.16 2.17 2.17 2.16 2.10 2.17 2.24 2.29 2.68 2.87 2.59
0.57 0.49 0.56 0.57 0.56 0.49 0.39 0.54 0.53 0.44 0.50 0.41 0.33 0.33 0.32 0.26 0.19 0.17 0.18 0.18 0.22 0.28 0.36 0.52 0.77 1.06 1.35 1.58 1.76 1.96 2.09 2.11 2.09 2.05 2.04 1.97 1.94 1.90 1.94 1.96 2.06 2.09 2.13 2.19 2.35 2.48 2.72 2.75 2.74
0.40 0.48 0.61 0.62 0.61 0.63 0.34 0.42 0.52 0.43 0.41 0.36 0.31 0.29 0.26 0.24 0.24 0.24 0.27 0.33 0.40 0.45 0.59 0.77 0.95 1.24 1.42 1.54 1.65 1.82 1.98 2.02 2.04 2.02 2.02 2.01 1.98 1.88 1.82 1.80 1.87 1.99 2.14 2.20 2.30 2.44 2.68 2.80 2.88
0.40 0.64 0.91 0.95 0.91 0.68 0.34 0.49 0.58 0.44 0.35 0.31 0.31 0.30 0.26 0.30 0.34 0.34 0.42 0.56 0.65 0.68 0.77 0.91 1.00 1.18 1.30 1.34 1.42 1.57 1.63 1.69 1.75 1.74 1.70 1.65 1.61 1.61 1.66 1.74 1.81 1.94 2.05 2.12 2.25 2.39 2.44 2.56 2.80
0.36 0.55 0.91 1.00 0.86 0.62 0.47 0.70 0.65 0.43 0.35 0.32 0.32 0.30 0.32 0.42 0.52 0.61 0.73 0.82 0.89 0.89 0.86 0.88 1.01 1.06 1.05 1.08 1.08 1.22 1.31 1.36 1.42 1.42 1.41 1.45 1.50 1.53 1.48 1.52 1.61 1.82 2.01 2.09 2.18 2.20 2.17 2.22 2.42
0.35 0.38 0.45 0.64 0.60 0.64 0.61 0.80 0.75 0.45 0.38 0.34 0.33 0.35 0.42 0.57 0.75 0.97 1.14 1.24 1.31 1.22 1.03 0.90 0.90 0.89 0.87 0.93 0.97 1.04 1.13 1.17 1.19 1.22 1.18 1.27 1.32 1.32 1.28 1.32 1.35 1.47 1.68 1.93 2.08 2.03 1.95 1.91 2.07
0.29 0.39 0.50 0.75 0.92 0.88 0.79 0.93 0.92 0.65 0.53 0.45 0.46 0.55 0.70 0.90 1.18 1.43 1.67 1.78 1.75 1.56 1.30 1.02 0.85 0.82 0.79 0.82 0.88 0.94 0.98 0.99 0.98 1.02 0.96 1.02 1.11 1.11 1.11 1.11 1.18 1.33 1.45 1.64 1.86 1.95 1.88 1.86 1.93
0.33 0.47 0.58 0.74 0.82 1.04 1.17 1.20 0.97 0.87 0.76 0.73 0.79 0.95 1.16 1.42 1.61 1.76 1.91 1.95 1.69 1.51 1.27 1.01 0.86 0.88 0.90 0.90 0.91 0.90 0.85 0.84 0.83 0.82 0.79 0.83 0.90 0.90 0.93 1.10 1.16 1.23 1.31 1.51 1.77 1.95 1.96 1.88 1.88
0.44 0.64 0.83 1.14 1.06 1.01 1.22 1.28 0.93 0.86 0.89 0.92 1.04 1.10 1.22 1.36 1.37 1.45 1.53 1.49 1.44 1.38 1.21 1.04 0.95 0.96 1.00 1.01 1.02 0.94 0.84 0.78 0.77 0.74 0.67 0.68 0.67 0.66 0.77 0.91 0.96 1.01 1.05 1.23 1.53 1.73 1.77 1.75 1.66